Location: Ethel Rock
(53.4667°N, 4.5667°W)
Time: 05:34:15
(UTC+00:00)

Cosmos 1980 Rocket - Pass Details

Date: 24 October 2020
Orbit: 831 x 848 km, 71.0° (Epoch: 25 November)

Event Time Altitude Azimuth Distance (km) Brightness Sun altitude
Exits shadow 03:53:45 - 337° (NNW) 2,505 4.6 -28.4°
Reaches altitude 10° 03:53:55 10° 338° (NNW) 2,452 4.6 -28.4°
Maximum altitude 03:58:48 29° 39° (NE) 1,475 3.9 -27.7°
Drops below altitude 10° 04:03:40 10° 99° (E) 2,442 5.4 -27.0°
Sets 04:06:25 0° 110° (ESE) 3,374 6.1 -26.6°
